GeoNames Home | Postal Codes | Download / Webservice | About 
search
login

Recent Modifications for user meteoblue

RevTimeNameCCUser or IpAddressFeat.Comment
2 I2017 09 19 10:23:13RadewegeDEmeteoblueP.PPLadd name :post,14778
3 I2017 09 19 10:18:09SchwielowseeDEmeteoblueA.ADM4add name :post,14548
3 I2017 09 19 10:15:54WilmersdorfDEmeteoblueP.PPLXadd name :post,14197
5 I2017 09 19 10:12:27ZehlendorfDEmeteoblueP.PPLXadd name :post,14169
10 I2017 09 19 10:11:08CharlottenburgDEmeteoblueP.PPLXadd name :post,14157
4 I2017 09 19 10:08:16KladowDEmeteoblueP.PPLXadd name :post,14089
9 I2017 09 19 10:06:57CharlottenburgDEmeteoblueP.PPLXadd name :post,14057
4 I2017 09 19 10:05:42SpandauDEmeteoblueP.PPLXadd name :post,13597
2 I2017 09 19 09:17:52Haken feldeDEmeteoblueP.PPLXadd name :post,13585
4 I2017 09 19 09:15:38TegelDEmeteoblueP.PPLXadd name :post,13507
4 I2017 09 19 09:13:31LübarsDEmeteoblueP.PPLXadd name :post,13469
6 I2017 09 19 09:12:05FrohnauDEmeteoblueP.PPLXadd name :post,13465
4 I2017 09 19 09:11:06BlankenburgDEmeteoblueP.PPLXadd name :post,13129
4 I2017 09 19 09:07:39BiesdorfDEmeteoblueP.PPLXadd name :post,12683
4 I2017 09 19 09:02:59MahlsdorfDEmeteoblueP.PPLXadd name :post,12623
4 I2017 09 19 09:00:01KaulsdorfDEmeteoblueP.PPLXadd name :post,12621
4 I2017 09 19 08:57:38RahnsdorfDEmeteoblueP.PPLXadd name :post,12589
4 I2017 09 19 08:55:46FriedrichshagenDEmeteoblueP.PPLXadd name :post,12587
4 I2017 09 19 08:53:17MüggelheimDEmeteoblueP.PPLXadd name :post,12559
6 I2017 09 19 08:52:19AdlershofDEmeteoblueP.PPLXadd name :post,12489
5 I2017 09 19 08:51:06JohannisthalDEmeteoblueP.PPLXadd name :post,12487
4 I2017 09 19 08:49:59RudowDEmeteoblueP.PPLXadd name :post,12355
4 I2017 09 19 08:44:23LichtenradeDEmeteoblueP.PPLXadd name :post,12307
4 I2017 09 19 08:42:27MarienfeldeDEmeteoblueP.PPLXadd name :post,12277
5 I2017 09 19 08:40:35LankwitzDEmeteoblueP.PPLXadd name :post,12249
6 I2017 09 19 08:36:13LichterfeldeDEmeteoblueP.PPLXupdate name :update name :
5 I2017 09 19 08:35:58LichterfeldeDEmeteoblueP.PPLXadd name :post,12209
4 I2017 09 19 08:30:25LichterfeldeDEmeteoblueP.PPLXadd name :post,12207(p)
4 I2017 09 19 08:29:13ZehlendorfDEmeteoblueP.PPLXdelete name :post,12207 (p)
3 I2017 09 19 08:25:07ZehlendorfDEmeteoblueP.PPLXadd name :post,12207(p)
2 I2017 09 19 08:24:09Bezirk Tempelhof-SchönebergDEmeteoblueA.ADM5add name :post,12107(p)
3 I2017 09 19 08:22:30Bezirk Friedrichshain-KreuzbergDEmeteoblueA.ADM5add name :post,10997(p)
4 I2017 09 19 08:20:24KreuzbergDEmeteoblueP.PPLXadd name :post,10963(p)
4 I2017 09 19 08:17:42KarlshorstDEmeteoblueP.PPLXadd name :post,10318(p)
3 I2017 09 19 08:13:34Bobritzsch-HilbersdorfDEmeteoblueA.ADM4add name :post,09627(p)
5 I2017 09 19 08:10:46KlingenthalDEmeteoblueP.PPLadd name :post,08248(p)
3 I2017 09 19 08:09:07AuerbachDEmeteoblueP.PPLadd name :post,08209(p)
2 I2017 09 19 08:05:26TörplaDEmeteoblueP.PPLadd name :post,07613(p)
2 I2017 09 19 08:03:12PratauDEmeteoblueP.PPLadd name :post,06888(p)
3 I2017 09 19 07:58:38WesterhausenDEmeteoblueP.PPLadd name :post,06502(p)
3 I2017 09 19 07:55:52Selke-AueDEmeteoblueA.ADM4add name :post,06458(p)
0 I2017 09 14 10:55:26TalschlusshütteITmeteoblueS.HTLadd name :it,Rifugio Fondovalle
-1 C2017 09 14 10:54:41TalschlusshütteITmeteoblueS.HTLcreated
3 U2017 08 20 22:21:04MathildespitzeCHmeteoblueT.PKadm3:6058>584
2 U2017 08 20 22:21:04MathildespitzeCHmeteoblueT.PKadm2:2304>250
1 U2017 08 20 22:21:03MathildespitzeCHmeteoblueT.PKadm1:VS>BE
8 U2017 08 20 22:19:54JungfraujochCHmeteoblueT.PASSadm3:6058>584
7 U2017 08 20 22:19:54JungfraujochCHmeteoblueT.PASSadm2:2304>250
6 U2017 08 20 22:19:54JungfraujochCHmeteoblueT.PASSadm1:VS>BE
0 U2017 08 18 15:41:53Mötschwil2CHmeteoblueP.PPLname:Mötschwil2>Mötschwil